Location: Unspecified
(0.0000°N, 0.0000°E)
Time: 22:26:29
(UTC+00:00)

N. Korean satellite - Pass Details

Date: 15 November 2017
Orbit: 460 x 514 km, 97.2° (Epoch: 24 November)

Event Time Altitude Azimuth Distance (km) Brightness Sun altitude
Rises 18:28:29 0° 172° (S) 2,488 10.3 -10.4°
Reaches altitude 10° 18:30:32 10° 174° (S) 1,608 9.4 -10.8°
Maximum altitude 18:33:58 74° 259° (WSW) 480 6.7 -11.7°
Drops below altitude 10° 18:37:23 10° 345° (NNW) 1,598 9.2 -12.5°
Sets 18:39:25 0° 346° (NNW) 2,471 10.1 -12.9°
